When you browse on this site, cookies collect data to enhance your experience and personalize the content and advertising you see.
Visit our Privacy Policy to learn more. By continuing to use the site, you agree to this use of cookies and data.
  • en Belgique
  • Liste des pays
  • À 7 jours
  • Température de l'eau
  • Carte satellitaire
  • Carte météo
  • Widgets météo
  • user-avatar
    Se connecter

    Météo par heure à Gremyachiy Kolodez

    Ce jour, 26 Juin, Mercredi

    Heure Température Précipitation Vent Pression Humidité
    00:00 +15°C° 0 mm 1 m/s 752 mmHg 77%
    01:00 +15°C° 0 mm 1 m/s 753 mmHg 77%
    02:00 +14°C° 0 mm 1 m/s 753 mmHg 77%
    03:00 +14°C° 0 mm 1 m/s 753 mmHg 77%
    04:00 +15°C° 0 mm 1 m/s 753 mmHg 77%
    05:00 +15°C° 0 mm 1 m/s 753 mmHg 77%
    06:00 +16°C° 0 mm 1 m/s 753 mmHg 76%
    07:00 +18°C° 0 mm 1 m/s 753 mmHg 71%
    08:00 +20°C° 0 mm 1 m/s 753 mmHg 66%
    09:00 +21°C° 0 mm 1 m/s 753 mmHg 61%
    10:00 +21°C° 0 mm 2 m/s 752 mmHg 59%
    11:00 +23°C° 0 mm 2 m/s 752 mmHg 56%
    12:00 +24°C° 0 mm 2 m/s 752 mmHg 54%
    13:00 +24°C° 0 mm 2 m/s 751 mmHg 55%
    14:00 +24°C° 0 mm 3 m/s 751 mmHg 56%
    15:00 +24°C° 0 mm 3 m/s 750 mmHg 57%
    16:00 +24°C° 0 mm 3 m/s 750 mmHg 60%
    17:00 +24°C° 0 mm 3 m/s 749 mmHg 63%
    18:00 +24°C° 0 mm 3 m/s 748 mmHg 66%
    19:00 +22°C° 0.1 mm 3 m/s 748 mmHg 72%
    20:00 +20°C° 0.1 mm 3 m/s 748 mmHg 77%
    21:00 +19°C° 0.1 mm 3 m/s 747 mmHg 83%
    22:00 +19°C° 0.1 mm 3 m/s 747 mmHg 85%
    23:00 +18°C° 0.1 mm 4 m/s 746 mmHg 87%

    Demain, 27 Juin, Jeudi

    Heure Température Précipitation Vent Pression Humidité
    00:00 +18°C° 0.1 mm 4 m/s 746 mmHg 89%
    01:00 +17°C° 0 mm 4 m/s 745 mmHg 91%
    02:00 +17°C° 0 mm 3 m/s 745 mmHg 92%
    03:00 +17°C° 0 mm 3 m/s 744 mmHg 94%
    04:00 +17°C° 0 mm 3 m/s 743 mmHg 93%
    05:00 +17°C° 0 mm 3 m/s 743 mmHg 93%
    06:00 +18°C° 0 mm 3 m/s 742 mmHg 92%
    07:00 +18°C° 1.6 mm 3 m/s 742 mmHg 94%
    08:00 +18°C° 1.6 mm 4 m/s 741 mmHg 95%
    09:00 +18°C° 1.6 mm 4 m/s 741 mmHg 97%
    10:00 +19°C° 0.8 mm 4 m/s 740 mmHg 96%
    11:00 +19°C° 0.8 mm 3 m/s 739 mmHg 95%
    12:00 +20°C° 0.8 mm 3 m/s 738 mmHg 93%
    13:00 +22°C° 0.2 mm 5 m/s 737 mmHg 86%
    14:00 +24°C° 0.2 mm 6 m/s 737 mmHg 79%
    15:00 +26°C° 0.2 mm 8 m/s 736 mmHg 72%
    16:00 +24°C° 3.2 mm 7 m/s 735 mmHg 78%
    17:00 +23°C° 3.2 mm 7 m/s 734 mmHg 85%
    18:00 +22°C° 3.2 mm 6 m/s 733 mmHg 91%
    19:00 +21°C° 1.2 mm 6 m/s 732 mmHg 92%
    20:00 +20°C° 1.2 mm 6 m/s 732 mmHg 92%
    21:00 +20°C° 1.2 mm 6 m/s 731 mmHg 93%
    22:00 +20°C° 1.8 mm 6 m/s 730 mmHg 94%
    23:00 +20°C° 1.8 mm 5 m/s 730 mmHg 95%

    Après-demain, 28 Juin, Vendredi

    Heure Température Précipitation Vent Pression Humidité
    00:00 +19°C° 1.8 mm 5 m/s 729 mmHg 96%
    01:00 +19°C° 0.2 mm 5 m/s 729 mmHg 96%
    02:00 +17°C° 0.2 mm 5 m/s 729 mmHg 96%
    03:00 +17°C° 0.2 mm 5 m/s 729 mmHg 96%
    04:00 +16°C° 0 mm 5 m/s 729 mmHg 95%
    05:00 +15°C° 0 mm 6 m/s 729 mmHg 93%
    06:00 +15°C° 0 mm 6 m/s 728 mmHg 91%
    07:00 +15°C° 0 mm 6 m/s 729 mmHg 89%
    08:00 +15°C° 0 mm 7 m/s 729 mmHg 87%
    09:00 +15°C° 0 mm 7 m/s 729 mmHg 85%
    10:00 +15°C° 0.1 mm 7 m/s 729 mmHg 84%
    11:00 +15°C° 0.1 mm 7 m/s 729 mmHg 82%
    12:00 +16°C° 0.1 mm 7 m/s 729 mmHg 81%
    13:00 +15°C° 0.1 mm 8 m/s 729 mmHg 81%
    14:00 +15°C° 0.1 mm 8 m/s 729 mmHg 82%
    15:00 +15°C° 0.1 mm 8 m/s 729 mmHg 82%
    16:00 +13°C° 0.1 mm 8 m/s 729 mmHg 83%
    17:00 +14°C° 0.1 mm 7 m/s 729 mmHg 84%
    18:00 +12°C° 0.1 mm 7 m/s 729 mmHg 85%
    19:00 +11°C° 0.1 mm 8 m/s 729 mmHg 85%
    20:00 +11°C° 0.1 mm 8 m/s 729 mmHg 86%
    21:00 +10°C° 0.1 mm 8 m/s 729 mmHg 86%
    22:00 +10°C° 0.2 mm 8 m/s 729 mmHg 88%
    23:00 +10°C° 0.2 mm 9 m/s 729 mmHg 89%

    29 Juin, Samedi

    Heure Température Précipitation Vent Pression Humidité
    00:00 +10°C° 0.2 mm 9 m/s 729 mmHg 91%
    01:00 +9°C° 0.1 mm 8 m/s 729 mmHg 91%
    02:00 +9°C° 0.1 mm 8 m/s 730 mmHg 91%
    03:00 +9°C° 0.1 mm 7 m/s 730 mmHg 91%
    04:00 +9°C° 0.1 mm 7 m/s 730 mmHg 91%
    05:00 +9°C° 0.1 mm 7 m/s 731 mmHg 90%
    06:00 +9°C° 0.1 mm 7 m/s 731 mmHg 90%
    07:00 +9°C° 0 mm 7 m/s 731 mmHg 90%
    08:00 +10°C° 0 mm 7 m/s 732 mmHg 89%
    09:00 +10°C° 0 mm 6 m/s 732 mmHg 88%
    10:00 +10°C° 0 mm 6 m/s 733 mmHg 87%
    11:00 +10°C° 0 mm 6 m/s 734 mmHg 86%
    12:00 +10°C° 0 mm 6 m/s 734 mmHg 85%
    13:00 +10°C° 0 mm 6 m/s 735 mmHg 85%
    14:00 +10°C° 0 mm 6 m/s 735 mmHg 84%
    15:00 +9°C° 0 mm 6 m/s 736 mmHg 83%
    16:00 +9°C° 0 mm 5 m/s 736 mmHg 84%
    17:00 +8°C° 0 mm 5 m/s 736 mmHg 85%
    18:00 +8°C° 0 mm 5 m/s 736 mmHg 86%
    19:00 +8°C° 0.1 mm 5 m/s 737 mmHg 87%
    20:00 +7°C° 0.1 mm 5 m/s 737 mmHg 88%
    21:00 +7°C° 0.1 mm 4 m/s 737 mmHg 90%
    22:00 +7°C° 0.2 mm 4 m/s 737 mmHg 91%
    23:00 +7°C° 0.2 mm 4 m/s 738 mmHg 92%

    30 Juin, Dimanche

    Heure Température Précipitation Vent Pression Humidité
    00:00 +7°C° 0.2 mm 4 m/s 738 mmHg 93%
    01:00 +7°C° 0.1 mm 4 m/s 738 mmHg 93%
    02:00 +7°C° 0.1 mm 4 m/s 738 mmHg 93%
    03:00 +7°C° 0.1 mm 4 m/s 738 mmHg 93%
    04:00 +8°C° 0.1 mm 4 m/s 738 mmHg 93%
    05:00 +8°C° 0.1 mm 4 m/s 738 mmHg 93%
    06:00 +8°C° 0.1 mm 4 m/s 739 mmHg 93%
    07:00 +8°C° 0.2 mm 4 m/s 739 mmHg 92%
    08:00 +8°C° 0.2 mm 4 m/s 739 mmHg 92%
    09:00 +10°C° 0.2 mm 3 m/s 740 mmHg 92%
    10:00 +11°C° 0 mm 4 m/s 740 mmHg 84%
    11:00 +13°C° 0 mm 4 m/s 740 mmHg 76%
    12:00 +15°C° 0 mm 4 m/s 741 mmHg 68%
    13:00 +17°C° 0.1 mm 4 m/s 741 mmHg 65%
    14:00 +17°C° 0.1 mm 5 m/s 741 mmHg 61%
    15:00 +19°C° 0.1 mm 5 m/s 741 mmHg 58%
    16:00 +19°C° 0.1 mm 4 m/s 742 mmHg 60%
    17:00 +19°C° 0.1 mm 4 m/s 742 mmHg 63%
    18:00 +18°C° 0.1 mm 3 m/s 742 mmHg 65%
    19:00 +17°C° 0 mm 2 m/s 742 mmHg 71%
    20:00 +15°C° 0 mm 2 m/s 742 mmHg 76%
    21:00 +13°C° 0 mm 1 m/s 743 mmHg 82%
    22:00 +13°C° 0 mm 1 m/s 743 mmHg 84%
    23:00 +12°C° 0 mm 1 m/s 743 mmHg 86%

    1 Juillet, Lundi

    Heure Température Précipitation Vent Pression Humidité
    00:00 +12°C° 0 mm 2 m/s 743 mmHg 87%
    01:00 +12°C° 0 mm 2 m/s 743 mmHg 89%
    02:00 +10°C° 0 mm 2 m/s 743 mmHg 90%
    03:00 +10°C° 0 mm 2 m/s 743 mmHg 91%
    04:00 +12°C° 0 mm 2 m/s 743 mmHg 90%
    05:00 +12°C° 0 mm 2 m/s 744 mmHg 89%
    06:00 +13°C° 0 mm 1 m/s 744 mmHg 89%
    07:00 +15°C° 0 mm 1 m/s 744 mmHg 82%
    08:00 +18°C° 0 mm 1 m/s 744 mmHg 76%
    09:00 +19°C° 0 mm 1 m/s 744 mmHg 70%
    10:00 +20°C° 0 mm 1 m/s 744 mmHg 65%
    11:00 +21°C° 0 mm 1 m/s 743 mmHg 60%
    12:00 +22°C° 0 mm 1 m/s 743 mmHg 55%
    13:00 +23°C° 0 mm 1 m/s 743 mmHg 54%
    14:00 +23°C° 0 mm 1 m/s 743 mmHg 54%
    15:00 +23°C° 0 mm 1 m/s 743 mmHg 53%
    16:00 +23°C° 0 mm 1 m/s 742 mmHg 56%
    17:00 +23°C° 0 mm 1 m/s 742 mmHg 58%
    18:00 +23°C° 0 mm 1 m/s 742 mmHg 61%
    19:00 +21°C° 0 mm 1 m/s 742 mmHg 66%
    20:00 +20°C° 0 mm 1 m/s 742 mmHg 71%
    21:00 +18°C° 0 mm 1 m/s 741 mmHg 76%
    22:00 +18°C° 0 mm 1 m/s 741 mmHg 79%
    23:00 +16°C° 0 mm 1 m/s 741 mmHg 82%
    Voir plus